Regional Weather Roundup
Issued by NWS

Home | Current Version | Previous Version | Graphics & Text | Print | Product List | Glossary On
Versions: 1 2 3 4 5 6 7 8 9 10 11 12 13 14 15 16 17 18 19 20 21 22 23 24 25 26 27 28 29 30 31 32 33 34 35 36 37 38 39 40 41 42 43 44 45 46 47 48 49 50
000
ASUS43 KFSD 310502
RWRSD

WEATHER ROUNDUP FOR SOUTH DAKOTA
NATIONAL WEATHER SERVICE SIOUX FALLS SD
1200 AM CDT TUE MAY 31 2016

NOTE: "FAIR" INDICATES FEW OR NO CLOUDS BELOW 12,000 FEET WITH NO
SIGNIFICANT WEATHER AND/OR OBSTRUCTIONS TO VISIBILITY.


SDZ001>005-009-010-012>017-310600-
NORTHWEST AND NORTH CENTRAL SOUTH DAKOTA

CITY           SKY/WX    TMP DP  RH WIND       PRES   REMARKS
BUFFALO          N/A     46  42  86 W14       29.93F
FAITH            N/A     51  45  79 NW17      29.96R
MOBRIDGE       CLOUDY    57  52  83 W10       29.83R
$$

SDZ012>016-024>037-041>051-057-063-072>074-310600-
SOUTHWEST AND SOUTH CENTRAL SOUTH DAKOTA

CITY           SKY/WX    TMP DP  RH WIND       PRES   REMARKS
RAPID CTY ARPT CLEAR     51  42  71 NW17      30.04R
PIERRE         CLOUDY    58  54  86 W15       29.87S
CUSTER         CLOUDY    46  31  55 N12G18    30.09R
PHILIP         CLOUDY    56  48  74 W8        29.99R
PINE RIDGE     PTCLDY    52  48  86 CALM      30.06R
WINNER         FAIR      59  53  80 W10       29.92R
$$

SDZ004>011-016>023-039-040-310600-
NORTHEAST SOUTH DAKOTA

CITY           SKY/WX    TMP DP  RH WIND       PRES   REMARKS
ABERDEEN       CLOUDY    58  56  93 SW3       29.79R
WATERTOWN      TSTM      62  59  90 W14       29.83R FOG
BROOKINGS      TSTM      69  60  73 W21G29    29.80R
SISSETON         N/A     62  57  83 NW12G25   29.77S
$$

SDZ017-020-022-023-036>040-048>070-310600-
SOUTHEAST SOUTH DAKOTA

CITY           SKY/WX    TMP DP  RH WIND       PRES   REMARKS
SIOUX FALLS    CLOUDY    69  59  70 S12G25    29.78R THUNDER
HURON          CLOUDY    62  57  83 W15G23    29.77F
MITCHELL       CLOUDY    67  57  70 SW13      29.81R
YANKTON        CLOUDY    68  54  60 W20G33    29.82R THUNDER
$$

ABBREVIATIONS USED IN REMARKS
   TC - TEMPERATURE IN CELSIUS
  WCI - WIND CHILL INDEX
   HX - HEAT INDEX
  VSB - VISIBILITY





USA.gov is the U.S. government's official web portal to all federal, state and local government web resources and services.